| time (UTC) | temp C | wind direction | speed KPH | gust KPH | rain 1hr cm | rain 24hr cm | rain mn cm | humidity % | barometer mb |
| 20260507004520 | 17 | 298 | 8.0 | 12.9 | 0.00 | 0.00 | 0.00 | 57 | 1020.7 |
| 20260507004017 | 17 | 317 | 12.9 | 22.5 | 0.00 | 0.00 | 0.00 | 57 | 1020.8 |
| 20260507003512 | 18 | 326 | 11.3 | 14.5 | 0.00 | 0.00 | 0.00 | 56 | 1020.7 |
| 20260507003008 | 18 | 354 | 8.0 | 17.7 | 0.00 | 0.00 | 0.00 | 57 | 1020.6 |
| 20260507002505 | 18 | 281 | 14.5 | 17.7 | 0.00 | 0.00 | 0.00 | 58 | 1020.4 |
| 20260507002001 | 18 | 329 | 12.9 | 14.5 | 0.00 | 0.00 | 0.00 | 58 | 1020.3 |
| 20260507001457 | 17 | 356 | 6.4 | 14.5 | 0.00 | 0.00 | 0.00 | 58 | 1020.3 |
| 20260507000955 | 18 | 24 | 4.8 | 4.8 | 0.00 | 0.00 | 0.00 | 56 | 1020.3 |
| 20260507000450 | 18 | 295 | 8.0 | 11.3 | 0.00 | 0.00 | 0.00 | 57 | 1020.2 |
| 20260506235946 | 18 | 311 | 11.3 | 14.5 | 0.00 | 0.00 | 0.00 | 57 | 1020.1 |
| 20260506235444 | 18 | 337 | 4.8 | 20.9 | 0.00 | 0.00 | 0.00 | 57 | 1019.9 |
| 20260506234939 | 18 | 286 | 14.5 | 17.7 | 0.00 | 0.00 | 0.00 | 57 | 1020.0 |
| 20260506234437 | 18 | 305 | 11.3 | 16.1 | 0.00 | 0.00 | 0.00 | 57 | 1020.3 |
| 20260506233934 | 18 | 306 | 8.0 | 16.1 | 0.00 | 0.00 | 0.00 | 58 | 1019.9 |
| 20260506233431 | 18 | 301 | 12.9 | 20.9 | 0.00 | 0.00 | 0.00 | 57 | 1019.9 |
| 20260506232928 | 18 | 329 | 14.5 | 16.1 | 0.00 | 0.00 | 0.00 | 56 | 1019.9 |
| 20260506232424 | 18 | 325 | 6.4 | 16.1 | 0.00 | 0.00 | 0.00 | 57 | 1020.2 |
| 20260506231920 | 18 | 357 | 8.0 | 20.9 | 0.00 | 0.00 | 0.00 | 58 | 1020.1 |
| 20260506231418 | 18 | 316 | 9.7 | 12.9 | 0.00 | 0.00 | 0.00 | 58 | 1020.1 |
| 20260506230915 | 18 | 309 | 12.9 | 14.5 | 0.00 | 0.00 | 0.00 | 57 | 1020.2 |
| 20260506230411 | 18 | 352 | 8.0 | 14.5 | 0.00 | 0.00 | 0.00 | 58 | 1020.2 |
| 20260506225907 | 18 | 50 | 6.4 | 11.3 | 0.00 | 0.00 | 0.00 | 57 | 1020.0 |
| 20260506225405 | 18 | 311 | 6.4 | 14.5 | 0.00 | 0.00 | 0.00 | 57 | 1020.2 |
| 20260506224902 | 18 | 308 | 8.0 | 16.1 | 0.00 | 0.00 | 0.00 | 57 | 1020.1 |
| 20260506224359 | 18 | 335 | 11.3 | 14.5 | 0.00 | 0.00 | 0.00 | 58 | 1020.0 |
| 20260506223855 | 18 | 298 | 9.7 | 17.7 | 0.00 | 0.00 | 0.00 | 58 | 1020.2 |
| 20260506223350 | 18 | 309 | 9.7 | 12.9 | 0.00 | 0.00 | 0.00 | 59 | 1019.9 |
| 20260506222848 | 18 | 344 | 8.0 | 14.5 | 0.00 | 0.00 | 0.00 | 60 | 1020.3 |
| 20260506222343 | 17 | 14 | 3.2 | 20.9 | 0.00 | 0.00 | 0.00 | 62 | 1020.3 |
| 20260506221842 | 18 | 42 | 9.7 | 16.1 | 0.00 | 0.00 | 0.00 | 59 | 1020.2 |
| 20260506221339 | 18 | 339 | 8.0 | 16.1 | 0.00 | 0.00 | 0.00 | 60 | 1020.3 |
| 20260506220836 | 18 | 35 | 4.8 | 11.3 | 0.00 | 0.00 | 0.00 | 60 | 1020.6 |
| 20260506220331 | 18 | 322 | 8.0 | 14.5 | 0.00 | 0.00 | 0.00 | 61 | 1020.3 |
| 20260506215829 | 17 | 5 | 8.0 | 16.1 | 0.00 | 0.00 | 0.00 | 61 | 1020.4 |
| 20260506215324 | 18 | 353 | 8.0 | 16.1 | 0.00 | 0.00 | 0.00 | 61 | 1020.6 |
| 20260506214820 | 18 | 313 | 8.0 | 17.7 | 0.00 | 0.00 | 0.00 | 59 | 1020.2 |
| 20260506214317 | 18 | 7 | 8.0 | 14.5 | 0.00 | 0.00 | 0.00 | 60 | 1020.4 |
| 20260506213816 | 17 | 336 | 6.4 | 16.1 | 0.00 | 0.00 | 0.00 | 62 | 1020.4 |
| 20260506213312 | 18 | 16 | 4.8 | 20.9 | 0.00 | 0.00 | 0.00 | 62 | 1020.4 |
| 20260506212810 | 18 | 21 | 9.7 | 14.5 | 0.00 | 0.00 | 0.00 | 61 | 1020.3 |
| 20260506212307 | 18 | 10 | 8.0 | 14.5 | 0.00 | 0.00 | 0.00 | 60 | 1020.6 |
| 20260506211800 | 18 | 5 | 4.8 | 12.9 | 0.00 | 0.00 | 0.00 | 61 | 1020.4 |
| 20260506211257 | 18 | 313 | 4.8 | 14.5 | 0.00 | 0.00 | 0.00 | 61 | 1020.3 |
| 20260506210754 | 17 | 309 | 9.7 | 16.1 | 0.00 | 0.00 | 0.00 | 62 | 1020.1 |
| 20260506210251 | 17 | 325 | 6.4 | 14.5 | 0.00 | 0.00 | 0.00 | 62 | 1020.2 |
| 20260506205748 | 18 | 323 | 8.0 | 17.7 | 0.00 | 0.00 | 0.00 | 61 | 1020.3 |
| 20260506205244 | 17 | 341 | 8.0 | 17.7 | 0.00 | 0.00 | 0.00 | 61 | 1020.4 |
| 20260506204741 | 17 | 75 | 6.4 | 16.1 | 0.00 | 0.00 | 0.00 | 61 | 1020.4 |
| 20260506204238 | 17 | 344 | 9.7 | 11.3 | 0.00 | 0.00 | 0.00 | 62 | 1020.3 |
| 20260506203736 | 17 | 314 | 8.0 | 14.5 | 0.00 | 0.00 | 0.00 | 61 | 1020.6 |
| 20260506203233 | 17 | 321 | 16.1 | 20.9 | 0.00 | 0.00 | 0.00 | 61 | 1020.4 |
| 20260506202730 | 17 | 351 | 9.7 | 17.7 | 0.00 | 0.00 | 0.00 | 61 | 1020.2 |
| 20260506202227 | 17 | 321 | 6.4 | 14.5 | 0.00 | 0.00 | 0.00 | 63 | 1020.6 |
| 20260506201724 | 17 | 332 | 11.3 | 16.1 | 0.00 | 0.00 | 0.00 | 61 | 1020.6 |
| 20260506201220 | 17 | 289 | 8.0 | 20.9 | 0.00 | 0.00 | 0.00 | 64 | 1020.4 |
| 20260506200717 | 17 | 39 | 9.7 | 16.1 | 0.00 | 0.00 | 0.00 | 60 | 1020.3 |
| 20260506200214 | 17 | 322 | 9.7 | 16.1 | 0.00 | 0.00 | 0.00 | 62 | 1020.7 |
| 20260506195711 | 17 | 338 | 9.7 | 12.9 | 0.00 | 0.00 | 0.00 | 61 | 1020.8 |
| 20260506195207 | 17 | 303 | 6.4 | 11.3 | 0.00 | 0.00 | 0.00 | 61 | 1020.3 |
| 20260506194704 | 17 | 311 | 8.0 | 14.5 | 0.00 | 0.00 | 0.00 | 60 | 1020.8 |
| 20260506194201 | 17 | 30 | 8.0 | 9.7 | 0.00 | 0.00 | 0.00 | 60 | 1020.8 |
| 20260506193658 | 16 | 310 | 12.9 | 20.9 | 0.00 | 0.00 | 0.00 | 62 | 1020.6 |
| 20260506193155 | 16 | 313 | 4.8 | 12.9 | 0.00 | 0.00 | 0.00 | 63 | 1020.8 |
| 20260506192652 | 16 | 304 | 12.9 | 16.1 | 0.00 | 0.00 | 0.00 | 64 | 1020.8 |
| 20260506192148 | 16 | 4 | 8.0 | 11.3 | 0.00 | 0.00 | 0.00 | 64 | 1021.1 |
| 20260506191645 | 16 | 20 | 8.0 | 14.5 | 0.00 | 0.00 | 0.00 | 65 | 1021.0 |
| 20260506191141 | 16 | 313 | 8.0 | 11.3 | 0.00 | 0.00 | 0.00 | 64 | 1021.0 |
| 20260506190639 | 15 | 14 | 6.4 | 16.1 | 0.00 | 0.00 | 0.00 | 66 | 1021.1 |
| 20260506190135 | 16 | 312 | 8.0 | 14.5 | 0.00 | 0.00 | 0.00 | 64 | 1020.8 |
| 20260506185633 | 15 | 282 | 6.4 | 12.9 | 0.00 | 0.00 | 0.00 | 65 | 1021.0 |
| 20260506185128 | 15 | 304 | 8.0 | 11.3 | 0.00 | 0.00 | 0.00 | 64 | 1021.0 |
| 20260506184626 | 15 | 10 | 4.8 | 14.5 | 0.00 | 0.00 | 0.00 | 65 | 1021.1 |
| 20260506184123 | 15 | 23 | 6.4 | 12.9 | 0.00 | 0.00 | 0.00 | 66 | 1021.2 |
| 20260506183620 | 15 | 345 | 4.8 | 8.0 | 0.00 | 0.00 | 0.00 | 65 | 1021.1 |
| 20260506183116 | 15 | 44 | 4.8 | 16.1 | 0.00 | 0.00 | 0.00 | 66 | 1021.0 |
| 20260506182614 | 15 | 310 | 6.4 | 11.3 | 0.00 | 0.00 | 0.00 | 67 | 1021.0 |
| 20260506182110 | 15 | 298 | 11.3 | 12.9 | 0.00 | 0.00 | 0.00 | 66 | 1021.2 |
| 20260506181608 | 14 | 310 | 9.7 | 11.3 | 0.00 | 0.00 | 0.00 | 67 | 1021.1 |
| 20260506181105 | 14 | 301 | 4.8 | 12.9 | 0.00 | 0.00 | 0.00 | 68 | 1021.1 |
| 20260506180602 | 13 | 341 | 6.4 | 14.5 | 0.00 | 0.00 | 0.00 | 69 | 1021.3 |
| 20260506180058 | 14 | 22 | 4.8 | 9.7 | 0.00 | 0.00 | 0.00 | 68 | 1021.3 |
| 20260506175554 | 13 | 14 | 6.4 | 12.9 | 0.00 | 0.00 | 0.00 | 68 | 1021.5 |
| 20260506175051 | 13 | 324 | 8.0 | 11.3 | 0.00 | 0.00 | 0.00 | 68 | 1021.3 |
| 20260506174550 | 13 | 6 | 9.7 | 11.3 | 0.00 | 0.00 | 0.00 | 68 | 1021.2 |
| 20260506174045 | 13 | 9 | 8.0 | 14.5 | 0.00 | 0.00 | 0.00 | 68 | 1021.2 |
| 20260506173544 | 13 | 329 | 8.0 | 14.5 | 0.00 | 0.00 | 0.00 | 68 | 1021.3 |
| 20260506173040 | 13 | 292 | 9.7 | 14.5 | 0.00 | 0.00 | 0.00 | 69 | 1021.1 |
| 20260506172538 | 13 | 289 | 8.0 | 11.3 | 0.00 | 0.00 | 0.00 | 69 | 1021.5 |
| 20260506172033 | 12 | 302 | 9.7 | 12.9 | 0.00 | 0.00 | 0.00 | 69 | 1021.2 |
| 20260506171531 | 12 | 344 | 8.0 | 11.3 | 0.00 | 0.00 | 0.00 | 71 | 1021.2 |
| 20260506171028 | 12 | 4 | 4.8 | 9.7 | 0.00 | 0.00 | 0.00 | 70 | 1021.5 |
| 20260506170526 | 12 | 300 | 8.0 | 14.5 | 0.00 | 0.00 | 0.00 | 71 | 1021.2 |
| 20260506170018 | 11 | 306 | 9.7 | 12.9 | 0.00 | 0.00 | 0.00 | 73 | 1021.5 |
| 20260506165516 | 12 | 313 | 6.4 | 11.3 | 0.00 | 0.00 | 0.00 | 72 | 1021.2 |
| 20260506165012 | 12 | 29 | 3.2 | 9.7 | 0.00 | 0.00 | 0.00 | 72 | 1021.2 |
| 20260506164509 | 11 | 4 | 6.4 | 8.0 | 0.00 | 0.00 | 0.00 | 73 | 1021.3 |
| 20260506164006 | 11 | 25 | 6.4 | 14.5 | 0.00 | 0.00 | 0.00 | 72 | 1021.5 |
| 20260506163502 | 11 | 311 | 9.7 | 22.5 | 0.00 | 0.00 | 0.00 | 71 | 1021.3 |
| 20260506162956 | 11 | 16 | 4.8 | 9.7 | 0.00 | 0.00 | 0.00 | 73 | 1021.5 |
| 20260506162454 | 11 | 12 | 4.8 | 16.1 | 0.00 | 0.00 | 0.00 | 73 | 1021.5 |
| 20260506161951 | 11 | 325 | 8.0 | 11.3 | 0.00 | 0.00 | 0.00 | 72 | 1021.3 |
| 20260506161449 | 11 | 0 | 11.3 | 14.5 | 0.00 | 0.00 | 0.00 | 73 | 1021.3 |
| 20260506160946 | 11 | 33 | 3.2 | 14.5 | 0.00 | 0.00 | 0.00 | 73 | 1021.3 |
| 20260506160443 | 11 | 356 | 4.8 | 11.3 | 0.00 | 0.00 | 0.00 | 74 | 1021.5 |
| 20260506155941 | 11 | 353 | 11.3 | 14.5 | 0.00 | 0.00 | 0.00 | 74 | 1021.6 |
| 20260506155439 | 11 | 18 | 4.8 | 14.5 | 0.00 | 0.00 | 0.00 | 76 | 1021.5 |
| 20260506153611 | 10 | 33 | 6.4 | 8.0 | 0.00 | 0.00 | 0.00 | 76 | 1021.3 |
| 20260506153108 | 10 | 352 | 4.8 | 9.7 | 0.00 | 0.00 | 0.00 | 76 | 1021.3 |
| 20260506152605 | 10 | 42 | 6.4 | 9.7 | 0.00 | 0.00 | 0.00 | 77 | 1021.3 |
| 20260506152103 | 10 | 35 | 1.6 | 9.7 | 0.00 | 0.00 | 0.00 | 79 | 1021.5 |
| 20260506151601 | 10 | 343 | 4.8 | 8.0 | 0.00 | 0.00 | 0.00 | 80 | 1021.5 |
| 20260506151058 | 10 | 328 | 4.8 | 4.8 | 0.00 | 0.00 | 0.00 | 80 | 1021.3 |
| 20260506150554 | 10 | 5 | 3.2 | 4.8 | 0.00 | 0.00 | 0.00 | 80 | 1021.1 |
| 20260506150051 | 10 | 1 | 4.8 | 8.0 | 0.00 | 0.00 | 0.00 | 82 | 1021.1 |
| 20260506145548 | 10 | 29 | 4.8 | 8.0 | 0.00 | 0.00 | 0.00 | 82 | 1021.1 |
| 20260506145045 | 9 | 294 | 4.8 | 8.0 | 0.00 | 0.00 | 0.00 | 83 | 1021.1 |
| 20260506144542 | 9 | 37 | 1.6 | 4.8 | 0.00 | 0.00 | 0.00 | 84 | 1021.2 |
| 20260506144039 | 9 | 2 | 1.6 | 3.2 | 0.00 | 0.00 | 0.00 | 85 | 1021.1 |
| 20260506143537 | 8 | 14 | 1.6 | 4.8 | 0.00 | 0.00 | 0.00 | 87 | 1021.1 |
| 20260506143035 | 8 | 0 | 0.0 | 0.0 | 0.00 | 0.00 | 0.00 | 88 | 1021.1 |
| 20260506142532 | 8 | 304 | 4.8 | 4.8 | 0.00 | 0.00 | 0.00 | 88 | 1021.2 |
| 20260506142031 | 8 | 329 | 3.2 | 4.8 | 0.00 | 0.00 | 0.00 | 88 | 1020.9 |
| 20260506141528 | 8 | 324 | 3.2 | 4.8 | 0.00 | 0.00 | 0.00 | 89 | 1021.2 |
| 20260506141026 | 8 | 359 | 0.0 | 0.0 | 0.00 | 0.00 | 0.00 | 90 | 1021.1 |
| 20260506140523 | 7 | 322 | 0.0 | 0.0 | 0.00 | 0.00 | 0.00 | 91 | 1021.0 |
| 20260506140020 | 7 | 321 | 3.2 | 3.2 | 0.00 | 0.00 | 0.00 | 91 | 1021.0 |
| 20260506135517 | 7 | 317 | 1.6 | 3.2 | 0.00 | 0.00 | 0.00 | 92 | 1020.8 |
| 20260506135013 | 7 | 352 | 0.0 | 0.0 | 0.00 | 0.00 | 0.00 | 93 | 1020.7 |
| 20260506134510 | 7 | 249 | 0.0 | 1.6 | 0.00 | 0.00 | 0.00 | 93 | 1021.0 |
| 20260506134006 | 7 | 348 | 3.2 | 4.8 | 0.00 | 0.00 | 0.00 | 93 | 1020.7 |
| 20260506133503 | 7 | 307 | 0.0 | 0.0 | 0.00 | 0.00 | 0.00 | 93 | 1020.8 |
| 20260506133000 | 6 | 306 | 0.0 | 0.0 | 0.00 | 0.00 | 0.00 | 93 | 1020.8 |
| 20260506132457 | 7 | 334 | 3.2 | 4.8 | 0.00 | 0.00 | 0.00 | 93 | 1020.8 |
| 20260506131954 | 6 | 344 | 0.0 | 1.6 | 0.00 | 0.00 | 0.00 | 93 | 1020.8 |
| 20260506131451 | 6 | 301 | 0.0 | 0.0 | 0.00 | 0.00 | 0.00 | 93 | 1020.7 |
| 20260506130948 | 6 | 304 | 0.0 | 0.0 | 0.00 | 0.00 | 0.00 | 92 | 1020.7 |
| 20260506130444 | 6 | 344 | 0.0 | 0.0 | 0.00 | 0.00 | 0.00 | 92 | 1020.7 |
| 20260506125942 | 6 | 243 | 0.0 | 0.0 | 0.00 | 0.00 | 0.00 | 92 | 1020.6 |
| 20260506125440 | 7 | 237 | 0.0 | 4.8 | 0.00 | 0.00 | 0.00 | 91 | 1020.3 |
| 20260506124938 | 7 | 244 | 6.4 | 8.0 | 0.00 | 0.00 | 0.00 | 91 | 1020.2 |
| 20260506124435 | 7 | 237 | 1.6 | 4.8 | 0.00 | 0.00 | 0.00 | 91 | 1020.3 |
| 20260506123933 | 7 | 249 | 3.2 | 3.2 | 0.00 | 0.00 | 0.00 | 90 | 1020.4 |
| 20260506123431 | 7 | 283 | 0.0 | 4.8 | 0.00 | 0.00 | 0.00 | 90 | 1020.1 |
| 20260506122928 | 7 | 329 | 0.0 | 0.0 | 0.00 | 0.00 | 0.00 | 89 | 1020.2 |
| 20260506122425 | 7 | 324 | 1.6 | 3.2 | 0.00 | 0.00 | 0.00 | 89 | 1020.2 |
| 20260506121924 | 7 | 235 | 3.2 | 3.2 | 0.00 | 0.00 | 0.00 | 88 | 1020.3 |
| 20260506121420 | 8 | 245 | 3.2 | 4.8 | 0.00 | 0.00 | 0.00 | 87 | 1020.2 |
| 20260506120917 | 8 | 232 | 4.8 | 9.7 | 0.00 | 0.00 | 0.00 | 86 | 1020.2 |
| 20260506120414 | 8 | 237 | 6.4 | 8.0 | 0.00 | 0.00 | 0.00 | 85 | 1020.1 |
| 20260506115912 | 8 | 244 | 4.8 | 8.0 | 0.00 | 0.00 | 0.00 | 85 | 1020.2 |
| 20260506115410 | 8 | 239 | 3.2 | 3.2 | 0.00 | 0.00 | 0.00 | 85 | 1020.3 |
| 20260506114908 | 8 | 275 | 3.2 | 3.2 | 0.00 | 0.00 | 0.00 | 84 | 1020.2 |
| 20260506114405 | 8 | 318 | 0.0 | 0.0 | 0.00 | 0.00 | 0.00 | 84 | 1020.3 |
| 20260506113904 | 8 | 325 | 3.2 | 3.2 | 0.00 | 0.00 | 0.00 | 82 | 1020.1 |
| 20260506113401 | 8 | 238 | 1.6 | 3.2 | 0.00 | 0.00 | 0.00 | 81 | 1020.1 |
| 20260506112857 | 8 | 233 | 6.4 | 11.3 | 0.00 | 0.00 | 0.00 | 81 | 1020.3 |
| 20260506112354 | 8 | 286 | 3.2 | 3.2 | 0.00 | 0.00 | 0.00 | 81 | 1020.2 |
| 20260506111851 | 8 | 255 | 1.6 | 4.8 | 0.00 | 0.00 | 0.00 | 81 | 1020.1 |
| 20260506111350 | 8 | 291 | 4.8 | 9.7 | 0.00 | 0.00 | 0.00 | 82 | 1020.2 |
| 20260506110847 | 8 | 248 | 3.2 | 4.8 | 0.00 | 0.00 | 0.00 | 83 | 1019.9 |
| 20260506110344 | 8 | 294 | 1.6 | 3.2 | 0.00 | 0.00 | 0.00 | 83 | 1020.0 |
| 20260506105841 | 8 | 234 | 6.4 | 8.0 | 0.00 | 0.00 | 0.00 | 82 | 1020.0 |
| 20260506105337 | 8 | 246 | 4.8 | 9.7 | 0.00 | 0.00 | 0.00 | 84 | 1019.8 |
| 20260506104835 | 8 | 241 | 4.8 | 4.8 | 0.00 | 0.00 | 0.00 | 85 | 1019.9 |
| 20260506104332 | 8 | 230 | 3.2 | 8.0 | 0.00 | 0.00 | 0.00 | 85 | 1019.9 |
| 20260506103830 | 8 | 247 | 6.4 | 9.7 | 0.00 | 0.00 | 0.00 | 85 | 1019.9 |
| 20260506103327 | 8 | 229 | 6.4 | 11.3 | 0.00 | 0.00 | 0.00 | 85 | 1019.9 |
| 20260506102825 | 8 | 240 | 4.8 | 9.7 | 0.00 | 0.00 | 0.00 | 86 | 1019.9 |
| 20260506102322 | 8 | 237 | 4.8 | 8.0 | 0.00 | 0.00 | 0.00 | 86 | 1019.9 |
| 20260506101820 | 8 | 245 | 4.8 | 9.7 | 0.00 | 0.00 | 0.00 | 86 | 1019.9 |
| 20260506101315 | 8 | 239 | 4.8 | 8.0 | 0.00 | 0.00 | 0.00 | 86 | 1019.7 |
| 20260506100814 | 8 | 245 | 4.8 | 8.0 | 0.00 | 0.00 | 0.00 | 86 | 1020.0 |
| 20260506100312 | 8 | 231 | 6.4 | 9.7 | 0.00 | 0.00 | 0.00 | 85 | 1019.5 |
| 20260506095810 | 8 | 235 | 6.4 | 8.0 | 0.00 | 0.00 | 0.00 | 85 | 1019.8 |
| 20260506095306 | 8 | 230 | 6.4 | 9.7 | 0.00 | 0.00 | 0.00 | 85 | 1019.3 |
| 20260506094803 | 8 | 202 | 1.6 | 4.8 | 0.00 | 0.00 | 0.00 | 84 | 1019.7 |
| 20260506094302 | 8 | 232 | 4.8 | 8.0 | 0.00 | 0.00 | 0.00 | 85 | 1019.7 |
| 20260506093759 | 8 | 235 | 4.8 | 4.8 | 0.00 | 0.00 | 0.00 | 85 | 1019.7 |
| 20260506093256 | 7 | 240 | 8.0 | 11.3 | 0.00 | 0.00 | 0.00 | 87 | 1019.5 |
| 20260506092754 | 8 | 222 | 3.2 | 4.8 | 0.00 | 0.00 | 0.00 | 87 | 1019.8 |
| 20260506092252 | 8 | 237 | 3.2 | 9.7 | 0.00 | 0.00 | 0.00 | 86 | 1019.7 |
| 20260506091749 | 7 | 235 | 6.4 | 9.7 | 0.00 | 0.00 | 0.00 | 84 | 1019.9 |
| 20260506091246 | 7 | 243 | 4.8 | 8.0 | 0.00 | 0.00 | 0.00 | 86 | 1019.5 |
| 20260506090744 | 8 | 232 | 8.0 | 11.3 | 0.00 | 0.00 | 0.00 | 86 | 1019.7 |
| 20260506090241 | 7 | 255 | 6.4 | 12.9 | 0.00 | 0.00 | 0.00 | 86 | 1019.4 |
| 20260506085738 | 8 | 223 | 4.8 | 8.0 | 0.00 | 0.00 | 0.00 | 86 | 1019.8 |
| 20260506085234 | 7 | 219 | 9.7 | 12.9 | 0.00 | 0.00 | 0.00 | 86 | 1019.5 |
| 20260506084730 | 7 | 233 | 8.0 | 11.3 | 0.00 | 0.00 | 0.00 | 87 | 1019.3 |
| 20260506084227 | 7 | 230 | 9.7 | 11.3 | 0.00 | 0.00 | 0.00 | 88 | 1019.7 |
| 20260506083724 | 7 | 224 | 3.2 | 9.7 | 0.00 | 0.00 | 0.00 | 88 | 1019.4 |
| 20260506083222 | 7 | 251 | 3.2 | 12.9 | 0.00 | 0.00 | 0.00 | 87 | 1019.4 |
| 20260506082719 | 7 | 247 | 8.0 | 11.3 | 0.00 | 0.00 | 0.00 | 88 | 1019.5 |
| 20260506082214 | 7 | 249 | 4.8 | 8.0 | 0.00 | 0.00 | 0.00 | 87 | 1019.5 |
| 20260506081712 | 7 | 222 | 4.8 | 8.0 | 0.00 | 0.00 | 0.00 | 88 | 1019.7 |
| 20260506081210 | 7 | 248 | 4.8 | 9.7 | 0.00 | 0.00 | 0.00 | 88 | 1019.2 |
| 20260506080707 | 7 | 291 | 4.8 | 9.7 | 0.00 | 0.00 | 0.00 | 88 | 1019.5 |
| 20260506080204 | 7 | 234 | 4.8 | 9.7 | 0.00 | 0.00 | 0.00 | 88 | 1019.7 |
| 20260506073148 | 7 | 245 | 8.0 | 11.3 | 0.00 | 0.00 | 0.00 | 87 | 1019.3 |
| 20260506072644 | 7 | 216 | 6.4 | 12.9 | 0.00 | 0.00 | 0.00 | 87 | 1019.3 |
| 20260506072142 | 7 | 216 | 4.8 | 9.7 | 0.00 | 0.00 | 0.00 | 87 | 1019.5 |
| 20260506071640 | 7 | 229 | 8.0 | 9.7 | 0.00 | 0.00 | 0.00 | 87 | 1019.2 |
| 20260506071137 | 7 | 218 | 4.8 | 4.8 | 0.00 | 0.00 | 0.00 | 87 | 1019.1 |
| 20260506070634 | 7 | 234 | 8.0 | 14.5 | 0.00 | 0.00 | 0.00 | 87 | 1019.3 |
| 20260506070131 | 7 | 232 | 6.4 | 8.0 | 0.00 | 0.00 | 0.00 | 87 | 1019.3 |
| 20260506062108 | 7 | 232 | 6.4 | 9.7 | 0.00 | 0.08 | 0.08 | 88 | 1018.6 |
| 20260506061604 | 7 | 207 | 3.2 | 9.7 | 0.00 | 0.08 | 0.08 | 89 | 1018.6 |
| 20260506061102 | 7 | 208 | 1.6 | 11.3 | 0.00 | 0.08 | 0.08 | 89 | 1018.5 |
| 20260506060600 | 7 | 233 | 8.0 | 9.7 | 0.00 | 0.08 | 0.08 | 89 | 1018.6 |
| 20260506051029 | 7 | 234 | 4.8 | 8.0 | 0.00 | 0.08 | 0.08 | 88 | 1018.2 |
| 20260506050527 | 7 | 196 | 4.8 | 4.8 | 0.00 | 0.08 | 0.08 | 88 | 1018.2 |
| 20260506045017 | 7 | 224 | 6.4 | 11.3 | 0.00 | 0.08 | 0.08 | 88 | 1018.2 |
| 20260506044515 | 7 | 213 | 8.0 | 11.3 | 0.00 | 0.08 | 0.08 | 87 | 1018.2 |
| 20260506044012 | 7 | 228 | 6.4 | 11.3 | 0.00 | 0.08 | 0.08 | 87 | 1018.1 |
| 20260506043509 | 7 | 240 | 8.0 | 11.3 | 0.00 | 0.08 | 0.08 | 87 | 1018.2 |
| 20260506043007 | 7 | 239 | 8.0 | 11.3 | 0.00 | 0.08 | 0.08 | 88 | 1018.0 |
| 20260506042506 | 7 | 218 | 4.8 | 9.7 | 0.00 | 0.08 | 0.08 | 88 | 1018.0 |
| 20260506042003 | 7 | 250 | 9.7 | 11.3 | 0.00 | 0.08 | 0.08 | 88 | 1018.0 |
| 20260506041502 | 7 | 246 | 11.3 | 12.9 | 0.00 | 0.08 | 0.08 | 88 | 1018.0 |
| 20260506040958 | 7 | 233 | 8.0 | 11.3 | 0.00 | 0.08 | 0.08 | 88 | 1017.9 |
| 20260506040456 | 7 | 244 | 4.8 | 8.0 | 0.00 | 0.08 | 0.08 | 88 | 1017.8 |
| 20260506035952 | 7 | 242 | 4.8 | 8.0 | 0.00 | 0.08 | 0.08 | 88 | 1017.9 |
| 20260506035449 | 7 | 249 | 8.0 | 14.5 | 0.00 | 0.08 | 0.08 | 88 | 1017.5 |
| 20260506034945 | 7 | 223 | 1.6 | 8.0 | 0.00 | 0.08 | 0.08 | 88 | 1017.6 |
| 20260506034443 | 7 | 223 | 8.0 | 9.7 | 0.00 | 0.08 | 0.08 | 89 | 1017.5 |
| 20260506033940 | 7 | 242 | 4.8 | 9.7 | 0.00 | 0.08 | 0.08 | 89 | 1017.5 |
| 20260506033438 | 7 | 233 | 8.0 | 11.3 | 0.00 | 0.08 | 0.08 | 89 | 1017.3 |
| 20260506032934 | 7 | 218 | 8.0 | 12.9 | 0.00 | 0.08 | 0.08 | 89 | 1017.1 |
| 20260506032431 | 7 | 204 | 4.8 | 11.3 | 0.00 | 0.08 | 0.08 | 89 | 1017.3 |
| 20260506031927 | 7 | 236 | 8.0 | 14.5 | 0.00 | 0.08 | 0.08 | 89 | 1017.3 |
| 20260506031425 | 7 | 188 | 1.6 | 8.0 | 0.00 | 0.08 | 0.08 | 89 | 1017.1 |
| 20260506030923 | 7 | 219 | 6.4 | 9.7 | 0.00 | 0.08 | 0.08 | 88 | 1017.0 |
| 20260506030420 | 7 | 242 | 8.0 | 11.3 | 0.00 | 0.08 | 0.08 | 88 | 1016.9 |
| 20260506025917 | 7 | 251 | 3.2 | 9.7 | 0.00 | 0.08 | 0.08 | 89 | 1017.0 |
| 20260506025414 | 7 | 252 | 4.8 | 12.9 | 0.00 | 0.08 | 0.08 | 88 | 1016.7 |
| 20260506024911 | 7 | 234 | 6.4 | 9.7 | 0.00 | 0.08 | 0.08 | 87 | 1016.9 |
| 20260506024408 | 7 | 258 | 8.0 | 9.7 | 0.00 | 0.08 | 0.08 | 88 | 1016.6 |
| 20260506023904 | 8 | 160 | 4.8 | 11.3 | 0.00 | 0.08 | 0.08 | 88 | 1016.6 |
| 20260506023401 | 8 | 242 | 4.8 | 8.0 | 0.00 | 0.08 | 0.08 | 86 | 1016.4 |
| 20260506022857 | 8 | 245 | 8.0 | 12.9 | 0.00 | 0.08 | 0.08 | 83 | 1016.6 |
| 20260506022354 | 8 | 295 | 1.6 | 4.8 | 0.00 | 0.08 | 0.08 | 83 | 1016.6 |
| 20260506021853 | 8 | 257 | 4.8 | 8.0 | 0.00 | 0.08 | 0.08 | 80 | 1016.5 |
| 20260506021349 | 8 | 275 | 6.4 | 12.9 | 0.00 | 0.08 | 0.08 | 79 | 1016.6 |
| 20260506020846 | 8 | 234 | 4.8 | 8.0 | 0.00 | 0.08 | 0.08 | 79 | 1016.5 |
| 20260506020344 | 8 | 259 | 6.4 | 12.9 | 0.00 | 0.08 | 0.08 | 79 | 1016.5 |
| 20260506015841 | 8 | 273 | 6.4 | 11.3 | 0.00 | 0.08 | 0.08 | 80 | 1016.1 |
| 20260506015339 | 8 | 246 | 3.2 | 4.8 | 0.00 | 0.08 | 0.08 | 80 | 1016.2 |
| 20260506014836 | 8 | 230 | 9.7 | 11.3 | 0.00 | 0.08 | 0.08 | 80 | 1016.3 |
| 20260506014332 | 8 | 249 | 6.4 | 11.3 | 0.00 | 0.08 | 0.08 | 80 | 1016.4 |
| 20260506013829 | 8 | 305 | 8.0 | 9.7 | 0.00 | 0.08 | 0.08 | 80 | 1016.2 |
| 20260506013326 | 8 | 294 | 9.7 | 12.9 | 0.00 | 0.08 | 0.08 | 79 | 1016.3 |
| 20260506012823 | 8 | 296 | 8.0 | 11.3 | 0.00 | 0.08 | 0.08 | 79 | 1016.2 |
| 20260506012320 | 8 | 233 | 9.7 | 11.3 | 0.00 | 0.08 | 0.08 | 79 | 1016.2 |
| 20260506011817 | 8 | 244 | 4.8 | 11.3 | 0.00 | 0.08 | 0.08 | 80 | 1016.2 |
| 20260506011314 | 8 | 244 | 9.7 | 14.5 | 0.00 | 0.08 | 0.08 | 79 | 1015.7 |
| 20260506010811 | 8 | 241 | 8.0 | 12.9 | 0.00 | 0.08 | 0.08 | 79 | 1016.0 |
| 20260506010309 | 8 | 259 | 4.8 | 11.3 | 0.00 | 0.08 | 0.08 | 79 | 1016.1 |
| 20260506005806 | 8 | 321 | 9.7 | 14.5 | 0.00 | 0.08 | 0.08 | 80 | 1015.8 |
| 20260506005305 | 8 | 204 | 6.4 | 14.5 | 0.00 | 0.08 | 0.08 | 80 | 1016.0 |
| 20260506004758 | 8 | 223 | 8.0 | 12.9 | 0.00 | 0.08 | 0.08 | 80 | 1016.0 |